This is the latest recevied weather packets stored in our database for station/object N4LLZ-13. If no packets are shown the sender has not sent any weather packets the latest 10 day(s).
| Time | Temp. | Humidity | Pressure | Rain* | Wind** | Luminosity | Snow |
|---|---|---|---|---|---|---|---|
| 1777735440 | 11.11° C | 92% | 1013.8 hPa | 41.4 mm | - | - | - |
| 1777735139 | 11.11° C | 92% | 1013.9 hPa | 24.89 mm | - | - | - |
| 1777734838 | 11.11° C | 92% | 1013.9 hPa | 26.92 mm | - | - | - |
| 1777734538 | 11.11° C | 92% | 1014 hPa | 18.54 mm | - | - | - |
| 1777734236 | 11.11° C | 92% | 1014.2 hPa | 20.57 mm | - | - | - |
| 1777733936 | 11.11° C | 92% | 1014.2 hPa | 22.86 mm | - | - | - |
| 1777733635 | 11.11° C | 92% | 1014.2 hPa | 22.35 mm | - | - | - |
| 1777733334 | 11.67° C | 92% | 1014.2 hPa | 28.96 mm | - | - | - |
| 1777732732 | 11.67° C | 92% | 1014 hPa | 28.96 mm | - | - | - |
| 1777732431 | 11.67° C | 93% | 1014.3 hPa | 32.26 mm | - | - | - |
| 1777732131 | 11.67° C | 94% | 1014.1 hPa | 30.73 mm | - | - | - |
| 1777731830 | 11.67° C | 93% | 1014 hPa | 46.99 mm | - | - | - |
| 1777731529 | 11.67° C | 93% | 1013.8 hPa | 31.24 mm | - | - | - |
| 1777731228 | 11.67° C | 93% | 1013.7 hPa | 27.69 mm | - | - | - |
| 1777730927 | 11.11° C | 93% | 1013.7 hPa | 18.54 mm | - | - | - |
| 1777730627 | 11.11° C | 94% | 1013.5 hPa | 19.81 mm | - | - | - |
| 1777730326 | 11.11° C | 93% | 1013.3 hPa | 22.1 mm | - | - | - |
| 1777730025 | 11.11° C | 94% | 1013.3 hPa | 18.8 mm | - | - | - |
| 1777729724 | 11.11° C | 94% | 1013.2 hPa | 22.86 mm | - | - | - |
| 1777729123 | 11.11° C | 93% | 1013 hPa | 19.05 mm | - | - | - |
| 1777728822 | 11.11° C | 93% | 1013 hPa | 31.24 mm | - | - | - |
| 1777728521 | 11.11° C | 92% | 1013 hPa | 33.02 mm | - | - | - |
| 1777728220 | 11.11° C | 92% | 1013 hPa | 46.99 mm | - | - | - |
| 1777727919 | 11.11° C | 92% | 1013.1 hPa | 38.86 mm | - | - | - |
| 1777727619 | 11.11° C | 92% | 1013.1 hPa | 39.88 mm | - | - | - |
* Rain latest hour (hover to see other rain measurements)
** Current wind speed in m/s (hover to see current wind gust speed)